Wind_Speed
92 92 93 93 94 96 97 98 99 99 100 100 100 100 99 99 99 98 98 98 98 98 98 98 97 97 98 98 98 98 98 98 98 98 98 98 98 98 97 97 97 96 96 96 96 96 96 96 96 96 97 97 97 97 97 97 97 97 97 96 95 94 93 92 91 90 89 87 86 86 85 84 84 84 83 82 81 79 76 73 69 64 60 57 56 55
93 93 94 94 95 96 97 98 99 100 101 101 101 101 101 101 101 101 101 101 101 101 101 101 101 101 100 101 101 101 101 101 101 101 101 101 101 100 100 99 99 99 99 98 98 98 98 98 98 99 99 99 99 99 98 98 97 97 96 95 94 93 92 90 89 88 87 86 85 84 84 83 83 82 81 80 78 76 73 69 65 61 58 56 55 54
96 96 96 96 97 97 98 99 100 100 101 101 101 102 101 102 102 102 102 102 102 103 103 102 102 102 102 102 102 103 103 103 103 103 103 103 102 102 102 102 101 101 101 101 101 100 100 100 100 100 100 99 99 98 98 97 96 95 94 93 92 91 89 88 87 86 85 84 84 83 83 82 82 81 80 78 75 73 69 65 62 58 56 55 54 54
98 98 99 99 99 100 100 101 101 102 102 103 103 103 103 103 103 103 104 104 104 104 104 104 104 104 104 104 104 104 104 104 104 104 104 104 104 104 103 103 103 103 102 102 102 101 101 100 100 99 99 98 97 96 95 94 93 92 91 90 89 88 87 86 86 85 84 83 83 82 82 81 80 79 77 75 72 69 66 62 59 57 55 54 54 54
100 100 101 101 101 102 102 103 104 104 105 105 105 105 105 105 105 105 105 105 106 106 106 106 106 106 106 106 105 105 105 105 105 105 105 105 105 104 104 104 103 103 102 101 101 100 99 99 98 97 97 96 95 93 92 91 90 89 89 88 87 86 86 85 84 83 83 82 82 81 80 80 78 77 74 72 69 66 63 60 57 56 55 54 54 54
103 103 103 103 104 104 104 105 105 106 106 106 106 106 106 106 106 106 106 106 106 106 106 106 106 106 106 106 106 106 106 105 105 105 105 104 104 103 103 102 101 101 100 99 98 97 96 96 95 94 93 92 91 90 89 88 88 87 86 86 85 85 84 83 83 82 81 81 80 80 79 78 76 74 71 69 66 63 60 58 56 56 55 55 55 55
105 105 105 105 105 105 105 105 105 105 105 105 105 104 104 104 103 103 103 103 103 103 103 103 104 104 104 104 104 103 103 103 103 102 102 101 101 100 99 99 98 97 96 95 94 93 92 92 91 91 90 89 88 87 87 86 85 85 85 84 84 83 83 82 81 81 80 79 78 77 76 75 73 71 68 66 63 61 59 57 56 56 56 55 55 55
107 106 105 105 104 104 103 102 102 102 101 101 101 100 100 99 99 98 98 98 98 98 98 99 99 99 99 99 99 99 98 98 98 98 97 97 96 95 94 93 93 92 91 90 89 89 88 88 87 87 86 86 85 85 84 84 83 83 83 82 82 81 81 80 80 79 78 77 76 75 74 72 70 68 65 63 61 59 58 57 57 57 56 56 56 56
106 105 104 103 102 101 100 99 98 97 97 97 96 96 95 95 94 94 93 93 93 92 92 93 93 93 93 93 93 93 93 92 92 92 91 91 90 90 89 88 87 87 86 85 85 84 84 84 83 83 83 82 82 82 81 81 81 81 80 80 80 79 79 78 77 76 75 74 73 72 71 69 67 65 63 61 60 58 58 57 57 57 57 57 57 57
104 102 101 100 98 97 96 95 94 93 93 93 92 92 91 91 91 91 90 90 89 88 88 88 88 88 88 88 88 88 87 87 86 86 86 85 85 84 84 83 82 82 81 81 80 80 80 79 79 79 79 79 79 78 78 78 78 78 78 77 77 77 76 75 74 73 72 71 70 69 68 66 65 63 62 60 59 58 58 58 58 58 58 58 58 58
100 99 98 96 95 93 92 92 91 90 90 90 90 89 89 89 89 89 89 88 87 87 86 85 85 85 85 85 84 84 84 83 83 82 82 81 81 81 80 79 79 78 77 77 77 76 76 76 76 76 76 76 75 75 75 75 75 75 75 74 74 74 73 72 71 70 69 68 67 66 65 64 63 62 61 60 59 59 59 59 59 59 59 59 59 59
98 96 95 94 93 91 91 90 89 89 89 89 89 89 89 88 88 88 88 87 87 86 86 85 84 83 83 83 83 83 82 82 81 81 80 79 79 78 78 77 76 75 75 74 74 73 73 73 73 73 73 73 72 72 72 72 72 72 72 71 71 70 70 69 68 67 66 66 65 64 64 63 62 61 61 60 60 60 60 60 60 60 60 60 60 59
96 95 94 93 92 91 90 90 89 89 89 89 89 89 89 89 88 88 88 87 87 87 86 86 85 84 83 83 82 82 82 81 81 80 80 79 78 78 77 76 76 75 74 73 72 72 71 71 71 71 70 70 70 70 70 70 69 69 69 69 68 68 68 67 66 65 65 64 64 63 63 62 62 62 61 61 61 61 61 61 61 61 61 61 61 60
96 95 94 93 93 92 91 91 91 91 91 91 91 90 90 90 90 89 89 89 88 88 87 87 86 85 84 83 83 82 82 82 81 81 80 80 79 78 78 77 76 75 74 73 72 72 71 70 70 70 70 69 69 69 69 68 68 68 67 67 67 66 66 66 65 65 64 64 63 63 63 63 63 62 62 62 62 62 62 62 62 63 62 62 62 61
97 96 95 95 94 94 93 93 93 93 93 93 93 92 92 92 92 92 91 91 90 89 89 89 88 87 86 85 84 84 83 83 83 82 82 81 80 80 79 79 78 77 76 75 74 73 72 72 71 71 70 70 70 70 69 69 68 68 67 67 66 66 66 66 65 65 65 64 64 64 64 64 64 64 64 64 64 64 64 64 64 64 64 63 63 62
98 98 98 97 97 96 96 96 96 96 95 95 95 95 95 95 95 94 94 94 93 92 91 91 90 90 89 87 86 86 85 85 84 84 83 83 82 81 81 80 80 79 78 77 76 76 75 74 73 73 72 72 72 71 71 70 70 69 68 68 67 67 67 67 67 66 66 66 66 66 66 66 66 66 65 65 65 65 65 65 65 65 65 64 64 63
100 100 100 100 99 99 99 98 98 98 98 98 98 98 98 98 98 97 97 96 96 95 94 93 93 92 92 91 90 88 88 87 86 86 85 84 84 83 82 82 82 81 80 79 79 78 78 77 76 76 75 75 74 74 74 73 72 72 71 70 69 69 69 68 68 68 68 68 68 68 68 68 67 67 67 67 67 67 66 66 66 66 66 65 65 64
103 103 103 103 103 102 102 101 101 101 101 101 101 100 100 100 100 100 100 99 98 98 97 96 95 95 94 94 93 92 91 90 89 88 87 86 85 85 84 84 83 83 82 81 81 80 80 80 79 79 78 78 77 77 76 76 75 74 73 72 72 71 71 70 70 70 70 70 70 70 70 69 69 69 69 69 68 68 68 68 67 67 67 67 66 65
106 106 106 106 106 105 105 105 105 105 105 105 104 104 103 103 103 103 103 102 101 101 100 99 98 97 97 97 96 95 94 94 93 91 90 89 87 87 86 86 85 85 84 83 83 83 82 82 82 81 81 80 80 79 79 78 78 77 76 75 74 73 73 72 72 72 72 72 72 71 71 71 71 71 70 70 70 69 69 69 68 68 68 67 67 66
110 109 109 109 109 109 108 108 108 108 108 108 108 107 107 107 106 106 106 106 105 104 103 102 101 101 100 100 99 98 97 97 96 95 93 92 90 89 89 88 88 87 87 86 85 85 85 84 84 84 83 83 82 82 81 81 80 79 78 77 76 76 75 74 74 74 74 74 73 73 73 73 72 72 72 71 71 70 70 70 69 69 69 68 67 66
112 112 111 111 111 111 112 111 111 110 111 111 111 111 110 110 109 109 109 109 108 108 107 106 105 104 103 103 102 101 100 99 99 99 97 96 94 93 92 91 91 90 89 89 88 87 87 87 87 86 86 85 85 84 84 83 82 82 81 79 79 78 77 76 76 75 75 75 75 75 74 74 74 73 73 73 72 72 71 71 70 70 69 69 68 67
115 114 114 113 113 113 113 113 113 113 113 113 113 113 113 112 112 112 111 111 111 111 110 109 108 107 106 106 105 104 102 101 102 101 101 100 98 97 95 94 94 93 93 92 91 90 90 89 89 88 88 87 87 86 86 85 84 83 82 81 80 79 79 78 77 77 77 77 76 76 76 75 75 75 74 74 73 73 72 72 71 71 70 69 69 68
116 116 115 115 114 114 114 114 114 114 114 114 114 115 114 114 114 113 113 112 112 112 112 111 110 110 109 109 107 106 104 104 103 103 103 103 102 101 99 98 97 97 96 95 94 93 92 92 91 91 90 89 89 88 88 87 86 85 84 83 82 81 80 80 79 78 78 78 78 77 77 77 76 76 75 75 74 74 73 73 72 72 71 70 69 68
117 117 116 116 115 115 115 116 115 115 115 115 116 116 115 115 115 114 114 114 113 113 113 113 113 112 112 111 110 108 107 106 105 105 105 105 105 103 102 101 100 100 99 98 97 96 95 95 94 93 92 92 91 90 90 89 88 87 86 85 84 83 82 81 80 80 80 79 79 79 78 78 77 77 77 76 75 75 74 74 73 72 72 71 70 69
120 119 118 117 117 117 117 117 117 117 117 117 118 118 117 117 117 116 116 115 115 115 115 115 115 115 115 114 113 112 110 109 108 108 108 108 107 106 105 104 104 103 103 101 100 99 98 97 97 96 95 94 93 92 92 91 90 89 88 87 86 85 84 83 82 81 81 81 80 80 79 79 79 78 78 77 76 76 75 75 74 73 72 71 71 70
122 122 121 120 120 119 119 120 120 120 120 120 120 120 120 120 119 119 118 118 117 117 117 117 117 116 116 116 115 115 113 112 110 110 110 110 109 108 107 106 106 106 105 104 103 102 101 100 99 98 97 97 96 95 94 93 92 91 90 89 88 86 86 85 84 83 82 82 81 81 81 80 80 79 79 78 77 77 76 75 75 74 73 72 71 71
126 125 125 124 123 123 122 122 122 122 122 122 122 123 122 122 122 122 121 120 119 119 119 118 118 118 118 118 118 117 116 115 113 112 112 111 111 111 110 109 108 108 108 107 106 104 103 103 102 101 100 99 98 97 96 95 94 93 92 91 89 88 87 86 85 85 84 83 83 82 82 81 81 80 80 79 78 78 77 76 76 75 74 73 72 71
130 129 128 127 127 126 125 125 124 124 124 124 124 124 124 124 124 124 123 122 121 120 121 120 120 119 119 119 119 118 117 117 116 115 114 113 113 113 112 110 110 110 110 109 108 107 106 105 104 103 102 101 100 99 98 97 96 95 94 92 91 90 89 88 87 86 85 85 84 83 83 82 82 81 80 80 79 78 78 77 76 75 74 74 73 72
132 131 131 130 129 129 128 127 126 125 125 124 124 124 124 124 124 124 124 122 122 122 122 122 121 120 120 120 119 119 118 118 117 116 115 115 115 115 113 112 112 112 111 111 110 109 108 107 105 104 104 103 102 101 100 99 98 97 95 94 93 92 90 89 88 87 87 86 85 85 84 83 83 82 81 80 80 79 78 77 77 76 75 74 74 73
132 132 132 131 131 130 129 128 127 126 125 125 124 124 123 123 123 123 122 122 122 122 122 122 121 120 120 120 119 119 118 118 117 116 116 117 117 116 115 114 113 113 112 112 111 111 110 108 107 106 105 104 103 102 101 100 99 98 97 96 94 93 92 91 90 89 88 87 86 86 85 84 83 83 82 81 80 79 79 78 77 76 76 75 74 73
131 131 131 131 131 130 129 129 128 127 126 125 124 123 122 122 121 121 120 120 121 121 121 121 120 120 119 119 119 118 118 117 115 115 116 118 119 118 116 115 115 114 113 113 113 112 111 110 109 107 106 105 105 104 103 102 100 99 98 97 96 94 93 92 91 90 89 88 87 87 86 85 84 83 82 82 81 80 79 79 78 77 76 75 75 74
130 130 129 129 129 129 128 128 127 126 125 123 122 121 120 120 119 118 118 118 117 118 118 118 118 118 117 117 117 116 115 114 113 114 116 118 120 119 117 116 116 115 114 113 113 113 112 111 110 109 107 107 106 105 103 102 101 100 99 98 97 96 95 93 92 91 90 89 88 87 86 86 85 84 83 82 81 80 80 79 78 77 77 76 75 74
127 127 126 126 125 125 125 124 123 123 122 121 119 118 117 116 115 114 114 113 113 113 113 114 114 114 114 113 113 113 112 111 111 112 115 117 119 119 118 117 116 115 114 114 113 113 112 112 111 110 109 108 107 105 104 103 102 101 100 99 98 97 96 94 93 92 91 90 89 88 87 86 85 84 84 83 82 81 80 80 79 78 77 76 76 74
122 122 121 120 120 119 119 118 118 117 117 116 115 113 112 111 110 109 109 108 107 107 107 108 108 108 108 108 108 108 107 107 107 109 112 115 117 118 117 116 115 115 114 114 113 113 112 112 111 111 110 108 107 106 105 104 103 102 101 100 99 98 97 95 94 93 92 91 90 89 88 87 86 85 84 83 82 82 81 80 79 79 78 77 76 75
115 115 114 114 113 113 112 112 112 111 110 110 109 108 107 106 105 104 103 102 102 101 101 101 101 102 102 102 103 102 102 102 103 105 108 112 114 115 115 114 113 113 113 113 113 112 112 112 111 111 110 109 108 107 106 104 103 102 101 100 99 98 97 96 95 94 93 92 91 90 89 88 87 86 85 84 83 82 81 81 80 79 78 77 76 75
108 108 107 106 106 106 106 105 105 105 104 104 103 102 101 100 99 98 97 97 96 96 95 95 95 95 95 96 96 97 97 97 98 100 104 107 109 111 111 111 110 110 110 110 111 111 111 111 111 110 110 109 108 107 106 105 103 103 102 101 100 99 98 97 96 94 93 93 92 91 90 88 87 86 85 84 84 83 82 81 80 79 79 78 76 75
102 101 101 100 100 100 100 100 99 99 99 99 98 97 96 95 94 93 92 92 92 91 91 90 90 90 90 90 91 91 91 92 93 96 99 101 103 105 106 106 106 106 106 107 108 108 109 109 109 109 109 109 108 107 106 105 104 103 102 101 100 99 98 97 96 95 94 93 92 91 90 89 88 87 86 85 84 83 82 82 81 80 79 78 76 75
96 96 95 95 95 95 95 95 94 94 94 94 93 93 92 90 89 88 88 87 87 87 87 87 86 86 85 86 86 86 87 88 89 91 93 95 97 98 99 100 101 101 102 103 104 105 106 107 108 108 108 108 108 107 106 105 104 104 103 102 100 99 98 97 96 95 94 93 93 92 91 89 88 87 86 85 85 84 83 82 81 80 79 78 77 75
92 91 91 91 90 90 90 90 90 90 90 90 89 89 87 86 85 84 84 83 83 84 84 83 83 82 82 82 82 82 83 84 85 86 88 89 90 91 93 95 96 97 98 99 100 102 103 104 105 106 106 106 106 106 105 104 104 104 103 102 101 99 98 97 96 95 94 94 93 92 91 90 89 88 87 86 85 84 84 83 82 80 79 78 77 75
88 88 87 87 87 86 86 86 86 86 86 86 85 85 84 83 82 81 80 80 80 80 80 80 80 79 79 78 78 79 79 80 81 81 82 83 84 86 88 90 92 93 94 95 96 98 99 101 102 103 103 104 104 104 104 104 104 103 102 102 101 100 99 97 96 95 94 94 93 92 91 90 89 88 87 87 86 85 84 83 82 81 79 78 77 76
85 84 84 83 83 83 83 83 83 82 82 82 82 81 80 79 78 77 77 77 77 77 77 77 77 76 76 75 75 75 76 76 76 77 77 78 79 81 84 86 88 88 89 91 92 94 95 97 98 99 100 101 102 102 103 102 102 102 102 101 101 100 98 97 96 95 94 94 93 92 91 90 89 88 88 87 86 85 84 83 82 81 79 78 77 76
81 80 80 80 79 79 79 79 79 79 79 78 78 78 77 76 75 74 74 74 74 74 74 74 74 74 73 72 72 72 72 73 73 73 73 74 76 78 80 82 83 84 85 86 88 89 91 92 94 95 96 97 99 99 100 100 100 100 100 100 99 99 97 97 96 95 94 94 93 92 91 90 89 89 88 87 87 86 84 83 82 81 80 78 77 75
78 77 77 76 76 76 75 75 75 75 75 75 74 74 73 72 72 71 71 71 71 71 71 71 71 70 70 69 69 69 69 69 69 70 71 72 73 75 76 78 79 80 81 82 84 85 86 87 89 91 92 93 95 96 97 98 98 98 98 98 98 98 97 97 95 94 94 93 93 92 91 90 89 89 88 87 87 86 85 83 82 81 80 78 77 75
75 74 74 73 73 72 72 72 72 72 72 71 71 71 70 69 69 69 68 68 68 68 68 68 68 67 67 66 66 66 66 66 67 67 68 69 70 71 73 74 75 76 77 79 80 81 82 83 85 86 88 89 91 93 94 95 96 96 96 96 96 96 96 96 95 94 93 93 92 91 91 90 89 89 88 87 87 86 84 83 82 81 79 78 76 75
72 71 71 70 70 69 69 68 68 68 68 68 68 67 67 67 66 66 66 66 66 66 65 65 65 64 64 63 63 63 63 64 64 65 65 66 67 68 69 71 72 73 74 75 76 77 78 79 81 82 83 85 87 89 91 92 93 93 94 94 94 94 94 94 93 93 93 92 92 91 90 89 89 88 88 87 86 85 84 83 82 80 79 78 76 75
69 68 68 67 67 66 66 65 65 65 64 64 64 64 64 63 63 63 63 63 63 63 62 62 62 61 61 60 60 60 61 61 61 62 62 63 64 65 66 68 69 70 70 71 72 73 74 75 76 78 80 82 84 86 87 88 90 91 91 91 92 92 92 92 92 92 92 92 91 90 89 89 88 88 88 87 86 85 84 82 81 80 78 77 76 74
65 65 65 64 64 63 63 62 62 61 61 61 61 61 61 60 60 60 60 60 60 59 59 59 59 58 58 58 58 58 59 59 59 59 59 60 61 62 64 65 65 66 67 68 68 69 70 71 73 75 77 79 81 82 83 85 86 87 88 89 89 90 90 91 91 91 90 90 90 89 88 88 88 88 87 86 86 84 83 82 80 79 78 76 75 74
63 62 62 61 61 61 60 59 59 58 58 58 58 58 57 57 57 57 57 57 57 56 56 56 56 56 56 56 56 56 56 56 56 56 56 57 59 60 61 62 63 63 64 64 65 66 67 68 69 71 73 75 77 79 80 81 82 84 85 85 86 87 88 89 89 89 89 89 89 88 88 87 87 87 86 86 85 84 83 81 80 78 77 76 74 73
60 59 59 58 58 58 57 56 56 55 55 55 55 54 54 54 54 54 54 54 54 54 53 53 53 53 53 53 54 53 53 53 53 53 54 55 57 58 59 59 60 60 61 61 62 62 63 65 67 68 70 72 73 75 76 78 79 80 81 82 84 85 86 86 87 87 87 87 87 87 86 86 86 86 85 85 84 83 82 80 79 78 76 75 73 72
57 56 56 56 55 55 54 54 53 53 52 52 52 52 52 51 51 51 51 51 51 51 51 51 51 51 51 51 51 51 50 50 50 51 52 54 55 56 57 57 57 58 58 59 59 60 61 62 64 66 67 69 70 72 73 75 76 77 78 80 81 82 83 84 85 85 85 85 85 85 85 85 85 84 84 83 83 82 81 79 78 77 75 74 72 71
54 54 53 53 53 52 52 51 51 50 50 50 49 49 49 49 49 48 48 48 48 48 48 48 48 49 49 48 48 48 48 48 48 49 51 53 54 54 54 54 55 55 55 56 56 57 58 60 62 63 65 66 67 69 70 72 73 74 76 77 79 80 81 82 83 83 83 83 83 83 83 83 83 82 82 82 81 81 80 79 78 76 74 72 71 69
Wind_Direction
279 279 279 279 279 279 279 280 280 280 280 280 280 280 280 279 279 279 279 279 278 278 278 278 277 277 277 277 277 277 277 278 278 278 278 278 278 278 279 279 279 279 279 280 280 280 281 281 281 282 282 283 283 284 284 285 285 286 286 286 287 287 288 288 288 289 289 289 290 290 291 291 292 293 293 294 295 296 296 297 296 296 295 294 294 295
280 280 280 280 280 280 280 280 280 280 280 280 280 280 280 279 279 279 279 278 278 278 277 277 277 277 277 276 276 276 277 277 277 277 277 277 277 277 278 278 278 278 278 279 279 279 280 280 281 281 282 282 283 283 284 284 285 285 285 286 286 286 287 287 287 288 288 289 289 289 290 291 291 292 292 293 294 295 295 295 295 294 293 293 293 294
282 282 281 281 281 281 281 280 280 280 280 280 280 280 280 280 279 279 279 278 278 278 278 277 277 277 276 276 276 276 276 276 276 276 276 276 277 277 277 277 277 278 278 278 279 279 279 280 280 281 281 282 282 283 283 284 284 284 284 285 285 285 286 286 286 287 287 288 288 289 289 290 290 291 292 293 293 294 294 293 293 292 292 292 293 294
283 282 282 282 281 281 281 281 280 280 280 280 280 280 280 279 279 279 279 279 278 278 278 278 277 277 277 277 276 276 276 276 276 276 276 276 276 277 277 277 277 278 278 278 279 279 280 280 280 281 281 282 282 282 283 283 283 283 283 284 284 284 284 285 285 286 286 287 287 288 288 289 290 290 291 292 292 292 292 292 291 291 291 292 293 294
282 282 281 281 281 281 280 280 280 280 280 280 280 279 279 279 279 279 279 279 278 278 278 278 278 277 277 277 277 277 277 277 277 277 277 277 277 277 277 278 278 278 278 279 279 279 280 280 280 281 281 281 281 282 282 282 282 282 282 282 283 283 283 284 284 285 285 286 286 287 288 288 289 290 290 291 291 291 291 290 290 290 290 292 293 295
281 281 281 281 281 281 280 280 280 280 280 280 279 279 279 279 279 279 279 278 278 278 278 278 278 278 277 277 277 277 277 277 277 277 277 277 278 278 278 278 278 278 279 279 279 279 280 280 280 280 280 280 280 280 280 281 281 281 281 281 281 282 282 283 283 284 284 285 286 286 287 288 288 289 289 290 290 290 289 289 289 290 291 292 293 295
282 282 281 281 281 281 281 281 280 280 280 280 280 279 279 279 279 278 278 278 278 278 278 278 278 278 278 277 277 277 278 278 278 278 278 278 278 278 278 278 278 279 279 279 279 279 279 279 279 279 279 279 279 279 279 279 279 279 280 280 280 281 281 282 282 283 284 284 285 286 286 287 287 288 288 288 289 289 289 289 289 290 291 292 294 296
283 283 282 282 282 282 281 281 281 280 280 280 280 280 279 279 279 279 278 278 278 278 278 278 278 278 278 278 278 278 278 278 278 278 278 278 278 278 278 278 278 279 279 279 279 279 279 279 278 278 278 278 278 278 278 278 278 278 279 279 279 280 280 281 282 282 283 283 284 285 285 286 286 287 287 287 287 288 288 288 289 290 292 293 294 296
284 283 283 283 282 282 282 282 281 281 281 280 280 280 280 280 280 279 279 279 278 278 278 278 278 278 278 278 278 278 278 278 278 278 278 279 279 279 279 279 279 279 279 279 279 278 278 278 278 278 278 278 277 277 277 277 277 278 278 278 279 279 280 280 281 282 282 283 283 284 284 285 286 286 286 286 287 287 288 289 290 291 292 293 295 296
283 283 283 283 282 282 282 282 281 281 281 281 281 281 280 280 280 280 280 280 279 279 279 279 279 279 279 279 279 279 279 279 279 279 279 279 279 279 279 279 279 279 279 279 278 278 278 278 278 278 277 277 277 277 277 277 277 277 277 278 278 279 279 280 280 281 281 282 283 283 284 284 284 285 285 286 286 287 288 289 290 291 292 293 295 297
283 283 282 282 282 282 281 281 281 281 281 280 280 280 280 280 280 280 280 280 280 280 280 279 279 279 279 279 280 280 280 280 280 279 279 280 279 279 279 279 279 279 279 279 278 278 278 278 278 277 277 277 277 277 277 277 277 277 277 278 278 278 279 279 280 280 281 281 282 282 283 283 284 284 285 285 286 287 288 289 290 291 292 293 295 297
283 282 282 282 281 281 281 280 280 280 280 280 280 280 280 280 279 279 279 280 280 280 280 279 279 279 279 279 280 280 280 280 280 280 280 280 280 280 280 280 279 279 279 279 279 278 278 278 278 278 278 277 277 277 277 277 277 277 277 277 278 278 279 279 279 280 280 281 281 282 282 282 283 284 284 285 286 287 288 289 290 291 292 293 295 297
282 282 282 281 281 281 280 280 280 279 279 279 279 279 279 279 279 279 279 279 279 279 279 279 279 279 279 279 279 279 279 280 280 280 280 280 280 280 280 280 280 279 279 279 279 279 278 278 278 278 278 278 278 277 277 277 277 277 277 277 278 278 278 279 279 279 280 280 281 281 281 282 283 283 284 285 286 287 288 289 290 291 292 293 295 297
282 282 281 281 281 280 280 280 279 279 279 279 278 278 278 278 278 278 278 278 278 278 278 278 278 278 278 278 278 278 278 278 279 279 279 279 279 279 279 279 279 280 279 279 279 279 279 278 278 278 278 278 278 278 277 277 277 277 277 277 278 278 278 279 279 279 279 280 280 281 281 282 282 283 284 285 286 287 288 289 290 291 292 294 295 297
281 281 281 281 280 280 280 279 279 279 279 278 278 278 278 278 278 277 277 277 277 277 277 277 277 277 277 277 277 277 277 277 277 277 277 278 278 278 278 279 279 279 279 279 279 279 279 278 278 278 278 278 278 277 277 277 277 277 277 277 278 278 278 278 279 279 279 280 280 281 281 282 283 283 284 285 286 287 288 289 290 291 292 294 295 297
280 280 280 280 280 280 279 279 279 278 278 278 278 278 278 278 277 277 277 277 277 277 277 277 277 277 277 277 276 276 276 276 276 276 276 276 276 277 277 277 278 278 278 279 279 279 278 278 278 278 278 277 277 277 277 277 277 277 277 277 277 278 278 278 279 279 280 280 280 281 281 282 283 284 284 285 286 287 288 289 290 291 292 294 296 297
280 280 280 280 280 279 279 279 279 278 278 278 278 278 277 277 277 277 277 277 277 277 277 277 277 277 277 277 277 276 276 275 275 275 275 275 275 276 276 276 276 277 277 277 277 278 278 277 277 277 277 277 277 276 276 276 277 277 277 277 277 278 278 278 279 279 280 280 281 281 282 282 283 284 285 285 286 287 288 289 290 291 293 294 296 297
280 280 280 280 280 280 280 279 279 279 279 278 278 278 277 277 277 277 277 277 277 277 277 277 277 277 277 277 277 276 276 276 275 275 274 274 274 275 275 275 275 275 276 276 276 276 276 276 276 276 276 276 276 276 276 276 276 276 277 277 277 277 278 278 279 279 280 280 280 281 282 282 283 284 284 285 286 287 288 289 290 291 293 294 296 298
281 281 280 280 280 280 280 280 279 279 279 279 278 278 278 278 278 278 278 277 277 277 277 277 277 277 276 276 276 276 276 276 276 275 275 275 274 274 274 274 274 274 274 274 274 274 274 275 275 275 275 275 275 275 275 275 276 276 276 276 277 277 277 278 278 279 279 280 280 281 281 282 283 283 284 285 286 287 288 289 290 291 293 294 296 297
280 280 280 280 280 280 280 280 279 279 279 279 279 278 278 278 278 278 278 278 277 277 277 277 277 276 276 276 276 276 276 276 276 276 275 275 275 274 274 274 273 273 273 273 273 273 273 273 273 273 273 274 274 274 274 275 275 275 276 276 276 277 277 277 278 278 279 279 280 280 281 282 282 283 284 285 286 287 288 289 290 291 292 294 295 297
280 280 280 280 280 279 279 279 279 279 279 279 279 278 278 278 278 278 277 277 278 277 277 277 277 276 276 276 276 276 276 276 276 276 276 276 275 274 274 273 273 273 272 272 272 272 272 272 272 272 272 272 273 273 273 274 274 274 275 275 276 276 276 277 277 278 278 279 279 280 280 281 282 283 283 284 285 286 287 288 289 291 292 293 295 296
280 280 280 280 280 279 279 279 279 279 279 278 278 278 278 278 278 277 277 277 277 277 277 277 277 277 276 276 276 276 276 276 275 275 276 275 275 275 274 273 273 272 272 272 271 271 271 271 271 271 271 272 272 272 272 273 273 274 274 274 275 275 276 276 276 277 277 278 278 279 280 280 281 282 283 284 285 286 287 288 289 290 291 293 294 295
281 281 280 280 280 280 279 279 279 279 279 278 278 278 278 277 277 277 277 277 276 276 277 277 277 277 276 276 276 276 275 275 275 275 275 275 274 274 274 274 273 273 272 272 271 271 271 271 271 271 271 271 271 271 272 272 272 273 273 274 274 274 275 275 276 276 277 277 278 278 279 280 281 281 282 283 284 285 286 287 288 289 291 292 293 294
282 281 281 281 280 280 280 280 279 279 279 278 278 278 278 277 277 277 276 276 276 276 276 276 276 276 276 275 275 275 275 274 274 274 274 274 274 274 274 273 273 273 272 272 272 271 271 271 271 271 271 271 271 271 271 271 272 272 272 273 273 274 274 274 275 275 276 276 277 278 278 279 280 281 282 282 284 285 286 287 288 289 290 291 292 294
283 282 282 282 281 281 280 280 280 279 279 278 278 278 277 277 277 276 276 276 275 275 275 275 275 275 275 275 275 275 274 274 273 273 273 273 273 273 273 273 272 272 272 272 272 271 271 271 271 271 271 270 271 271 271 271 271 271 272 272 272 273 273 274 274 274 275 276 276 277 277 278 279 280 281 282 283 284 285 286 287 288 289 290 291 293
284 283 283 283 282 281 281 280 280 279 279 279 278 278 277 277 277 276 276 275 275 275 274 274 274 274 274 274 274 274 274 273 273 272 272 272 272 272 272 272 272 272 272 272 271 271 271 271 271 271 271 270 270 270 270 271 271 271 271 271 272 272 272 273 273 274 274 275 275 276 277 278 278 279 280 281 282 283 284 285 286 287 288 289 291 292
284 284 284 283 283 282 281 281 280 280 279 278 278 278 277 277 277 276 276 275 275 275 274 274 273 273 273 273 273 273 273 273 272 272 271 271 271 271 271 271 271 271 271 271 271 270 270 270 270 270 270 270 270 270 270 270 270 270 271 271 271 271 272 272 273 273 274 274 275 275 276 277 278 278 279 280 281 282 283 284 285 286 287 288 290 291
284 284 284 284 283 283 282 281 281 280 279 279 278 278 277 277 276 276 276 275 275 275 274 273 273 272 272 272 272 272 272 272 271 271 271 270 270 270 270 270 270 269 269 270 270 270 270 269 269 269 270 270 270 270 270 270 270 270 270 270 271 271 271 272 272 272 273 273 274 275 275 276 277 278 279 280 281 282 282 283 284 285 286 287 289 290
284 284 284 283 283 283 282 282 281 280 280 279 278 278 277 277 276 276 275 275 275 274 273 273 272 272 271 271 271 271 270 270 270 270 270 270 269 269 269 268 268 268 268 268 268 269 268 268 268 268 268 269 269 269 269 269 269 269 270 270 270 270 271 271 271 272 272 273 273 274 274 275 276 277 278 279 280 281 281 282 283 284 285 286 287 289
283 283 283 283 283 282 282 282 281 280 280 279 278 278 277 276 276 275 275 274 274 273 273 272 272 271 271 270 270 269 269 269 269 269 269 269 268 268 268 267 267 267 267 267 267 267 267 267 267 267 267 267 268 268 268 268 269 269 269 269 270 270 270 270 271 271 271 272 272 273 274 274 275 276 277 278 279 280 280 281 282 283 284 285 286 288
282 282 282 282 282 282 281 281 281 280 280 279 278 278 277 276 276 275 274 274 273 273 272 272 271 271 270 270 269 268 268 268 268 268 268 267 267 267 267 266 266 265 265 265 265 265 266 266 266 266 266 266 266 267 267 267 268 268 268 269 269 269 269 270 270 270 271 271 271 272 273 274 274 275 276 277 278 278 279 280 281 282 283 284 285 286
282 281 281 281 281 281 280 280 280 280 279 279 278 277 277 276 275 275 274 273 273 272 271 271 270 270 269 269 268 268 267 267 267 267 266 266 265 265 265 265 264 264 264 264 264 264 264 265 265 265 265 265 265 265 266 266 267 267 267 268 268 268 269 269 269 269 270 270 271 271 272 273 273 274 275 276 277 277 278 279 280 281 282 283 284 285
281 281 281 280 280 280 280 279 279 279 279 278 278 277 276 276 275 274 274 273 272 271 271 270 270 269 269 268 268 267 267 266 265 265 264 264 264 264 264 264 263 263 263 263 263 263 263 263 264 264 264 264 264 264 264 265 265 266 266 266 267 267 268 268 268 269 269 269 270 270 271 272 272 273 274 275 276 276 277 278 279 280 281 282 283 284
281 281 280 280 280 279 279 279 278 278 278 277 277 277 276 275 275 274 273 273 272 271 270 270 269 269 268 268 267 267 266 265 264 263 263 262 262 262 263 262 262 262 262 262 262 262 262 262 262 262 262 263 263 263 263 263 264 264 265 265 265 266 266 267 267 268 268 269 269 270 270 271 272 272 273 274 274 275 276 277 278 279 280 281 282 283
281 280 280 280 279 279 279 278 278 277 277 277 276 276 275 275 274 274 273 272 272 271 270 269 269 268 268 267 267 266 265 264 263 262 261 261 261 261 261 261 261 261 260 260 260 260 260 261 261 261 261 261 262 262 262 262 262 263 263 263 264 264 265 266 266 267 267 268 268 269 269 270 271 271 272 273 273 274 275 276 277 278 279 280 281 282
281 280 280 279 279 279 278 278 277 277 277 276 276 275 275 275 274 274 273 272 272 271 270 269 269 268 267 267 266 265 264 263 262 261 260 259 259 259 260 260 260 259 259 259 259 259 259 259 259 259 260 260 260 260 261 261 261 261 262 262 262 263 264 264 265 265 266 266 267 268 268 269 270 270 271 272 273 273 274 275 276 277 278 279 280 281
281 280 280 279 279 278 278 277 277 277 276 276 275 275 275 274 274 273 273 272 272 271 270 269 268 267 267 266 265 264 263 262 261 260 259 258 258 258 258 258 259 258 258 258 258 258 258 258 258 258 258 258 258 259 259 259 260 260 260 260 261 262 262 263 263 264 264 265 266 267 267 268 269 269 270 271 272 272 273 274 275 276 277 278 279 281
281 280 280 279 279 278 278 277 277 276 276 276 275 275 275 274 274 273 273 272 271 271 270 269 268 267 266 265 264 263 262 261 260 259 258 257 257 257 257 257 257 257 257 256 256 256 256 256 256 256 256 257 257 257 258 258 258 258 258 259 260 260 261 261 262 262 263 264 265 265 266 267 268 268 269 270 271 271 272 273 274 275 276 277 278 280
281 281 280 279 279 278 278 277 277 276 276 275 275 275 274 274 274 273 272 272 271 270 269 268 267 266 265 264 263 262 261 260 259 258 257 257 257 256 256 256 256 256 255 255 255 254 254 254 254 254 255 255 255 256 256 256 256 256 257 258 258 258 259 259 260 261 262 262 263 264 265 266 266 267 268 269 269 270 271 272 273 274 275 276 278 279
281 281 280 279 279 278 277 277 276 276 275 275 275 274 274 274 273 273 272 271 270 269 269 268 267 266 265 264 263 262 261 260 259 258 257 256 256 255 255 255 254 254 254 253 253 252 252 252 252 253 253 253 254 254 254 254 255 255 255 256 256 257 257 258 259 259 260 261 261 262 263 264 265 266 267 267 268 269 270 271 272 273 274 275 277 278
281 281 280 279 279 278 277 277 276 276 275 275 274 274 274 273 273 272 271 270 269 268 268 267 266 265 264 263 262 261 260 259 258 257 257 256 255 254 253 253 253 252 252 252 251 251 251 251 251 251 251 251 252 252 252 253 253 253 254 254 255 255 256 257 257 258 258 259 260 261 262 263 263 264 265 266 267 268 269 270 271 272 273 274 275 276
282 281 280 279 279 278 277 277 276 275 275 275 274 274 273 273 272 271 271 270 269 268 267 266 265 265 264 263 262 261 260 259 258 257 256 255 254 253 252 252 252 251 251 250 250 250 249 249 249 249 249 250 250 250 251 251 252 252 252 253 253 254 255 255 256 256 257 258 258 259 260 261 262 263 264 265 266 267 268 269 270 271 272 273 274 275
282 281 280 279 278 278 277 276 276 275 275 274 274 273 273 272 272 271 270 269 268 267 266 266 265 264 264 263 261 260 259 258 257 256 255 254 253 252 251 251 251 251 250 250 249 249 248 248 248 248 248 248 249 249 249 250 250 250 251 251 252 252 253 253 254 255 255 256 257 258 259 260 260 261 262 264 265 266 267 268 269 270 271 272 273 274
282 281 280 279 278 278 277 276 275 275 274 274 273 273 272 272 271 270 269 268 267 266 266 265 265 264 263 262 261 260 259 258 256 255 254 253 252 251 251 250 250 249 249 248 248 248 247 247 247 247 247 247 247 247 248 248 248 249 249 250 250 251 251 252 253 254 254 255 256 256 257 258 259 260 261 262 263 264 265 267 268 269 270 271 272 273
282 281 280 279 279 278 277 276 275 275 274 273 273 272 272 271 270 269 268 268 267 266 265 265 264 263 262 262 260 259 258 257 255 254 253 252 251 250 250 249 249 248 248 247 247 247 246 246 245 245 245 245 245 245 246 246 247 247 248 248 249 249 250 251 251 252 252 253 254 255 256 257 258 259 260 261 262 263 264 265 266 268 269 270 271 272
282 281 280 279 279 278 277 276 275 274 274 273 272 272 271 270 269 268 268 267 266 266 265 264 264 263 262 261 260 258 257 256 255 253 252 251 250 250 249 248 248 247 247 247 246 246 245 245 244 244 244 244 244 244 244 244 245 245 246 247 247 248 248 249 249 250 251 252 253 253 254 255 256 257 258 259 261 262 263 264 265 266 268 269 270 271
282 281 280 279 278 278 277 276 275 274 273 273 272 271 270 269 268 268 267 266 265 265 264 263 263 262 261 260 258 257 256 255 254 252 251 250 249 249 248 247 247 247 246 246 245 245 244 243 243 242 242 242 242 242 242 243 243 244 244 245 245 246 247 247 248 249 250 250 251 252 253 254 255 256 257 258 259 260 262 263 264 265 266 268 269 270
281 281 280 279 278 277 277 276 275 274 273 272 271 270 269 268 268 267 266 265 264 263 263 262 261 260 259 258 257 255 254 253 252 251 250 249 248 247 247 246 246 245 245 244 244 243 243 242 242 241 241 241 241 241 241 241 242 242 243 243 244 244 245 246 247 247 248 249 250 251 252 252 253 254 256 257 258 259 260 262 263 264 265 266 267 269
281 280 280 279 278 277 276 276 275 274 272 271 270 269 268 268 267 266 265 264 263 262 261 260 259 258 257 256 255 254 253 252 251 250 248 247 247 246 245 245 244 244 243 243 242 242 241 241 240 240 240 240 240 240 240 240 240 241 241 242 242 243 244 244 245 246 247 247 248 249 250 251 252 253 254 256 257 258 259 261 262 263 264 265 266 267
281 280 280 279 278 277 276 275 274 273 272 271 270 269 268 267 266 265 264 263 262 261 259 258 257 256 255 255 253 252 251 250 249 248 246 245 244 244 243 243 243 242 242 241 241 240 239 239 239 238 238 238 238 238 238 239 239 239 240 240 241 241 242 243 244 245 245 246 247 248 249 250 251 252 253 254 256 257 258 259 260 262 263 264 265 266
282 281 280 279 278 277 276 275 274 273 272 271 269 268 267 266 265 264 263 261 260 259 258 257 256 255 254 253 252 251 249 248 246 245 244 243 243 242 242 242 241 241 240 240 239 238 238 237 237 237 236 236 236 236 236 237 237 237 238 238 239 240 240 241 242 243 244 245 246 247 248 249 250 251 252 253 254 256 257 258 259 260 261 263 264 265
Height
10530 10529 10528 10526 10524 10521 10518 10515 10513 10511 10509 10508 10508 10508 10509 10510 10510 10510 10510 10510 10510 10510 10511 10511 10511 10512 10512 10511 10511 10511 10511 10510 10510 10510 10510 10510 10510 10510 10510 10510 10510 10510 10510 10508 10508 10507 10506 10506 10505 10505 10504 10503 10503 10503 10502 10501 10501 10500 10499 10498 10498 10497 10497 10496 10496 10496 10495 10495 10494 10493 10493 10491 10491 10490 10489 10488 10488 10487 10486 10485 10484 10483 10482 10481 10480 10480
10521 10520 10520 10518 10516 10514 10511 10508 10506 10505 10503 10501 10500 10500 10500 10501 10501 10501 10501 10501 10501 10501 10501 10501 10502 10502 10503 10503 10503 10503 10502 10502 10501 10501 10501 10501 10501 10501 10501 10501 10501 10501 10501 10501 10500 10500 10499 10499 10498 10498 10497 10496 10496 10495 10495 10495 10494 10493 10492 10491 10491 10491 10490 10490 10490 10490 10490 10489 10488 10488 10486 10486 10485 10485 10484 10483 10483 10482 10481 10480 10480 10479 10478 10477 10476 10475
10511 10510 10509 10508 10507 10506 10503 10501 10498 10497 10496 10494 10493 10492 10492 10492 10492 10491 10491 10491 10491 10491 10491 10491 10491 10492 10492 10492 10493 10493 10493 10493 10493 10493 10493 10493 10493 10493 10493 10493 10493 10493 10493 10493 10492 10492 10491 10491 10491 10490 10490 10489 10489 10488 10488 10487 10486 10486 10485 10485 10485 10484 10484 10483 10483 10483 10483 10483 10482 10481 10481 10480 10479 10479 10478 10478 10478 10477 10476 10476 10475 10475 10474 10473 10473 10471
10502 10501 10500 10499 10498 10497 10495 10493 10491 10489 10488 10486 10485 10484 10484 10483 10483 10483 10483 10483 10482 10481 10481 10481 10482 10482 10482 10482 10482 10483 10483 10483 10483 10483 10483 10483 10483 10484 10484 10484 10485 10485 10485 10485 10484 10484 10483 10483 10483 10483 10482 10481 10481 10481 10481 10480 10480 10479 10478 10478 10478 10478 10478 10477 10477 10477 10477 10476 10476 10476 10475 10474 10473 10473 10473 10473 10472 10472 10471 10471 10470 10470 10470 10469 10468 10467
10493 10492 10491 10490 10490 10488 10486 10485 10483 10481 10480 10478 10477 10476 10476 10475 10475 10475 10475 10474 10473 10473 10472 10472 10472 10473 10472 10472 10472 10473 10473 10473 10473 10474 10474 10475 10475 10475 10475 10475 10476 10476 10476 10476 10476 10475 10475 10475 10475 10475 10474 10474 10474 10473 10473 10473 10473 10472 10471 10471 10471 10471 10471 10471 10471 10471 10471 10471 10470 10470 10469 10468 10468 10467 10467 10467 10467 10467 10466 10466 10466 10465 10465 10465 10464 10463
10484 10483 10482 10481 10480 10479 10478 10476 10475 10473 10471 10470 10468 10468 10468 10467 10466 10466 10466 10465 10465 10464 10463 10463 10463 10463 10463 10463 10463 10463 10463 10464 10464 10465 10465 10465 10466 10466 10466 10466 10467 10467 10467 10467 10467 10467 10467 10466 10466 10466 10466 10466 10466 10466 10466 10466 10465 10465 10465 10465 10465 10465 10465 10465 10465 10465 10465 10465 10464 10463 10463 10463 10462 10461 10462 10462 10462 10462 10461 10461 10461 10461 10460 10460 10460 10459
10474 10473 10473 10472 10471 10470 10469 10468 10466 10464 10462 10461 10460 10459 10458 10458 10458 10458 10457 10457 10456 10456 10455 10455 10454 10454 10455 10455 10455 10455 10455 10455 10455 10456 10456 10456 10457 10458 10458 10458 10458 10459 10459 10459 10459 10459 10459 10459 10458 10458 10458 10459 10459 10459 10459 10459 10459 10458 10458 10458 10458 10458 10458 10458 10458 10458 10458 10458 10458 10458 10457 10456 10456 10456 10456 10456 10457 10457 10457 10456 10456 10456 10455 10455 10455 10454
10463 10463 10462 10461 10461 10460 10459 10458 10456 10455 10453 10451 10450 10450 10449 10449 10449 10449 10448 10448 10448 10448 10447 10446 10446 10446 10446 10446 10446 10446 10446 10447 10448 10448 10448 10448 10449 10449 10450 10450 10450 10451 10451 10451 10451 10451 10451 10451 10451 10451 10451 10451 10451 10451 10452 10452 10452 10452 10452 10452 10452 10452 10452 10452 10453 10453 10453 10453 10452 10452 10451 10451 10451 10451 10451 10451 10452 10452 10452 10451 10451 10451 10450 10450 10450 10449
10453 10453 10451 10451 10451 10450 10450 10448 10447 10446 10444 10443 10441 10441 10441 10440 10439 10439 10440 10440 10440 10440 10440 10439 10438 10438 10438 10438 10438 10438 10439 10440 10440 10440 10440 10441 10441 10441 10442 10442 10443 10443 10444 10444 10444 10444 10444 10444 10443 10443 10444 10444 10445 10445 10445 10445 10445 10445 10445 10446 10446 10446 10446 10446 10446 10446 10446 10446 10446 10446 10446 10446 10446 10446 10446 10446 10447 10447 10447 10447 10446 10446 10446 10445 10445 10445
10444 10443 10443 10442 10442 10442 10441 10440 10438 10438 10436 10435 10433 10433 10433 10432 10431 10430 10430 10430 10431 10431 10431 10431 10431 10431 10430 10431 10431 10431 10431 10432 10432 10433 10433 10433 10434 10435 10435 10435 10436 10436 10436 10437 10437 10437 10437 10437 10436 10436 10437 10437 10438 10438 10438 10438 10439 10439 10439 10439 10440 10440 10440 10440 10440 10441 10441 10441 10441 10441 10441 10441 10441 10441 10441 10441 10442 10442 10442 10442 10441 10441 10441 10440 10440 10440
10435 10435 10434 10434 10433 10433 10433 10432 10431 10430 10429 10427 10426 10425 10425 10425 10423 10423 10422 10422 10422 10423 10423 10424 10425 10425 10424 10423 10423 10424 10425 10425 10425 10426 10426 10427 10427 10428 10428 10428 10429 10430 10430 10430 10430 10431 10431 10430 10430 10430 10430 10430 10431 10431 10431 10432 10432 10433 10433 10433 10433 10433 10433 10434 10435 10435 10435 10435 10435 10435 10435 10435 10436 10436 10436 10436 10437 10437 10437 10437 10437 10436 10436 10436 10435 10435
10425 10426 10426 10425 10425 10425 10425 10425 10424 10423 10422 10421 10420 10418 10418 10416 10416 10416 10416 10415 10416 10416 10416 10416 10417 10418 10418 10417 10417 10417 10418 10418 10418 10419 10420 10420 10421 10421 10421 10421 10422 10423 10423 10424 10424 10425 10425 10424 10424 10424 10424 10424 10425 10425 10425 10425 10426 10426 10426 10427 10427 10427 10428 10428 10428 10429 10430 10430 10430 10430 10430 10430 10431 10431 10431 10432 10432 10433 10433 10432 10432 10431 10431 10431 10431 10431
10416 10417 10417 10417 10418 10418 10417 10417 10416 10416 10415 10414 10413 10411 10410 10410 10409 10409 10409 10410 10410 10409 10409 10408 10409 10410 10411 10411 10411 10411 10411 10411 10411 10412 10413 10413 10413 10414 10414 10414 10415 10415 10416 10417 10418 10418 10418 10418 10418 10418 10418 10418 10418 10418 10419 10419 10420 10420 10421 10421 10421 10421 10421 10422 10423 10423 10424 10425 10425 10425 10425 10425 10426 10426 10426 10427 10427 10428 10428 10427 10427 10427 10426 10426 10426 10426
10408 10408 10408 10409 10409 10409 10409 10409 10409 10408 10406 10406 10406 10405 10404 10403 10403 10402 10402 10402 10402 10403 10403 10402 10402 10403 10405 10405 10406 10406 10406 10405 10405 10406 10406 10406 10406 10407 10408 10407 10408 10409 10410 10411 10411 10411 10413 10413 10413 10412 10412 10412 10412 10412 10413 10413 10414 10414 10415 10415 10416 10416 10416 10416 10417 10418 10418 10419 10420 10420 10420 10420 10421 10421 10421 10422 10422 10423 10423 10423 10422 10422 10422 10421 10421 10421
10400 10400 10400 10400 10401 10401 10401 10401 10400 10400 10398 10398 10398 10397 10396 10395 10395 10395 10395 10394 10394 10395 10396 10396 10395 10396 10397 10398 10399 10400 10400 10400 10400 10400 10400 10400 10400 10401 10401 10401 10401 10402 10404 10405 10405 10405 10406 10407 10406 10406 10406 10406 10406 10406 10406 10407 10408 10408 10409 10410 10410 10410 10411 10411 10411 10412 10413 10413 10414 10415 10415 10415 10416 10416 10416 10417 10417 10417 10417 10417 10417 10417 10417 10416 10416 10416
10392 10392 10392 10392 10392 10393 10392 10393 10392 10391 10390 10390 10390 10389 10388 10386 10386 10386 10387 10386 10386 10387 10388 10388 10388 10388 10389 10390 10391 10393 10393 10393 10393 10393 10394 10393 10394 10395 10396 10396 10395 10396 10398 10398 10398 10399 10400 10400 10400 10400 10400 10400 10400 10400 10400 10401 10401 10402 10403 10404 10405 10405 10405 10405 10406 10406 10407 10408 10408 10409 10409 10410 10410 10411 10411 10411 10411 10412 10412 10412 10411 10411 10411 10411 10411 10411
10384 10384 10383 10383 10383 10383 10383 10383 10383 10383 10382 10382 10381 10381 10380 10378 10378 10378 10378 10378 10378 10380 10380 10381 10381 10381 10381 10381 10383 10384 10385 10386 10386 10386 10388 10388 10388 10389 10390 10390 10390 10390 10392 10393 10393 10393 10393 10393 10394 10394 10394 10394 10393 10393 10393 10394 10395 10396 10397 10398 10399 10400 10400 10400 10400 10400 10401 10401 10402 10403 10403 10404 10405 10405 10406 10406 10406 10406 10406 10406 10406 10406 10406 10406 10406 10406
10375 10375 10375 10375 10374 10373 10374 10375 10374 10373 10373 10373 10372 10372 10371 10371 10370 10370 10370 10370 10370 10371 10371 10372 10373 10374 10375 10374 10373 10374 10377 10378 10378 10378 10381 10382 10382 10383 10385 10385 10384 10385 10386 10386 10387 10387 10387 10387 10387 10387 10388 10387 10387 10387 10387 10388 10389 10390 10391 10392 10393 10394 10395 10395 10395 10395 10395 10396 10396 10397 10398 10398 10399 10400 10400 10400 10401 10401 10401 10401 10401 10401 10400 10400 10400 10400
10365 10365 10366 10365 10365 10364 10365 10365 10365 10363 10363 10362 10362 10362 10363 10362 10361 10361 10361 10360 10361 10362 10363 10363 10365 10365 10366 10366 10365 10365 10368 10369 10369 10369 10373 10375 10376 10377 10378 10378 10378 10378 10380 10380 10381 10381 10381 10381 10380 10380 10381 10380 10380 10381 10381 10381 10382 10383 10385 10386 10387 10388 10389 10389 10390 10390 10390 10390 10391 10391 10391 10392 10393 10394 10395 10395 10395 10395 10396 10396 10395 10395 10395 10395 10395 10395
10356 10356 10356 10356 10356 10355 10355 10355 10355 10355 10353 10352 10351 10352 10353 10353 10353 10353 10351 10351 10351 10352 10353 10355 10356 10356 10358 10358 10357 10357 10359 10361 10360 10360 10363 10366 10368 10370 10371 10371 10371 10371 10373 10373 10374 10375 10375 10374 10374 10374 10374 10374 10374 10375 10375 10375 10376 10377 10378 10380 10381 10382 10383 10383 10384 10384 10384 10385 10385 10385 10386 10386 10387 10388 10388 10389 10390 10390 10390 10390 10390 10390 10390 10390 10390 10390
10346 10346 10346 10346 10347 10347 10345 10344 10345 10345 10345 10343 10342 10342 10342 10343 10343 10344 10343 10342 10341 10341 10343 10344 10345 10346 10348 10349 10348 10348 10350 10353 10353 10351 10352 10356 10358 10360 10362 10363 10364 10363 10365 10366 10366 10367 10367 10367 10367 10367 10368 10368 10368 10368 10368 10369 10370 10371 10372 10373 10375 10376 10377 10378 10378 10378 10378 10378 10379 10380 10380 10380 10381 10382 10383 10383 10384 10385 10385 10385 10385 10385 10385 10385 10385 10385
10337 10336 10336 10336 10337 10337 10336 10335 10335 10335 10335 10334 10333 10332 10331 10332 10333 10334 10333 10333 10333 10332 10331 10333 10334 10336 10338 10338 10338 10339 10342 10345 10345 10343 10343 10346 10347 10349 10352 10355 10355 10355 10356 10357 10358 10360 10360 10360 10360 10360 10361 10361 10361 10362 10363 10363 10363 10365 10366 10367 10368 10370 10371 10371 10372 10373 10373 10373 10373 10373 10374 10375 10375 10376 10376 10378 10378 10379 10380 10380 10380 10380 10380 10380 10381 10381
10326 10326 10326 10326 10326 10326 10326 10325 10325 10325 10325 10324 10323 10322 10321 10321 10323 10324 10324 10325 10325 10324 10323 10323 10324 10325 10326 10326 10327 10330 10333 10335 10335 10335 10335 10336 10336 10337 10341 10345 10346 10345 10346 10348 10350 10351 10351 10351 10352 10353 10354 10355 10355 10356 10356 10357 10357 10358 10360 10361 10362 10363 10365 10366 10366 10367 10367 10367 10367 10368 10368 10369 10370 10370 10371 10371 10372 10373 10374 10374 10375 10375 10375 10375 10376 10376
10312 10313 10315 10315 10315 10315 10315 10315 10314 10313 10313 10313 10312 10311 10310 10311 10311 10313 10313 10315 10315 10316 10315 10315 10315 10315 10314 10315 10316 10319 10322 10324 10326 10326 10326 10325 10326 10327 10331 10334 10335 10335 10335 10337 10340 10342 10343 10343 10343 10345 10346 10347 10347 10348 10350 10350 10351 10352 10353 10355 10356 10357 10358 10360 10360 10361 10361 10361 10361 10362 10363 10363 10363 10364 10365 10366 10366 10367 10368 10368 10369 10370 10370 10370 10371 10371
10297 10299 10301 10302 10303 10303 10303 10303 10302 10301 10301 10300 10300 10299 10298 10298 10299 10300 10301 10303 10304 10305 10305 10306 10305 10305 10303 10304 10306 10308 10310 10312 10315 10317 10316 10315 10316 10318 10320 10323 10324 10324 10324 10326 10330 10333 10333 10333 10335 10336 10338 10339 10340 10341 10342 10343 10344 10345 10346 10348 10349 10350 10351 10353 10354 10355 10355 10355 10356 10356 10356 10357 10358 10358 10359 10360 10361 10361 10362 10363 10363 10364 10365 10365 10365 10366
10282 10284 10285 10287 10288 10290 10290 10290 10289 10289 10288 10288 10287 10286 10286 10286 10286 10287 10288 10290 10291 10292 10293 10294 10294 10293 10293 10295 10296 10296 10296 10300 10303 10306 10306 10306 10306 10308 10310 10312 10314 10315 10313 10315 10319 10322 10323 10324 10325 10327 10329 10330 10331 10332 10334 10335 10336 10338 10339 10341 10342 10343 10345 10346 10348 10348 10349 10350 10350 10350 10351 10351 10352 10353 10353 10354 10355 10356 10356 10357 10358 10358 10359 10360 10360 10360
10267 10268 10269 10270 10272 10273 10275 10275 10275 10275 10275 10275 10274 10273 10273 10273 10273 10273 10274 10275 10276 10280 10282 10282 10281 10281 10283 10286 10286 10285 10285 10288 10291 10293 10294 10295 10297 10298 10298 10301 10304 10305 10303 10304 10307 10311 10313 10315 10316 10318 10320 10320 10322 10323 10325 10326 10328 10330 10331 10333 10335 10336 10338 10340 10341 10342 10343 10343 10343 10344 10345 10346 10346 10347 10348 10348 10350 10350 10351 10351 10352 10353 10353 10354 10355 10355
10254 10253 10253 10254 10254 10255 10256 10258 10259 10260 10260 10260 10260 10260 10259 10260 10260 10260 10260 10260 10263 10266 10269 10268 10268 10269 10271 10274 10273 10273 10275 10277 10279 10280 10281 10285 10287 10288 10287 10291 10294 10295 10293 10293 10296 10300 10303 10305 10306 10308 10310 10311 10313 10315 10316 10318 10320 10321 10323 10325 10327 10329 10331 10333 10334 10335 10336 10336 10337 10338 10339 10340 10340 10341 10342 10343 10344 10345 10345 10346 10346 10347 10348 10348 10349 10350
10243 10241 10240 10239 10238 10238 10238 10240 10240 10241 10243 10243 10244 10244 10245 10246 10246 10247 10246 10247 10250 10252 10253 10253 10253 10256 10260 10262 10262 10263 10265 10266 10267 10268 10270 10274 10275 10275 10275 10281 10285 10284 10282 10283 10286 10288 10291 10294 10296 10298 10301 10302 10303 10306 10307 10309 10311 10313 10315 10317 10320 10321 10323 10325 10326 10328 10329 10330 10330 10331 10332 10333 10335 10335 10336 10337 10338 10339 10340 10340 10341 10341 10343 10343 10344 10344
10233 10230 10228 10226 10225 10223 10223 10223 10224 10224 10225 10226 10228 10228 10228 10230 10231 10233 10233 10235 10236 10237 10238 10238 10239 10242 10246 10250 10251 10253 10253 10255 10256 10258 10261 10263 10261 10261 10263 10270 10273 10273 10271 10274 10276 10278 10280 10282 10286 10290 10291 10293 10295 10296 10298 10301 10303 10305 10307 10310 10312 10314 10316 10318 10319 10321 10321 10323 10323 10325 10326 10327 10328 10329 10330 10331 10332 10333 10334 10335 10335 10336 10337 10338 10338 10339
10221 10220 10217 10215 10213 10210 10209 10208 10208 10208 10208 10210 10211 10211 10212 10213 10215 10216 10219 10221 10221 10222 10223 10224 10225 10227 10231 10236 10238 10240 10240 10243 10246 10251 10252 10250 10247 10246 10250 10258 10261 10261 10260 10264 10267 10268 10268 10271 10275 10280 10282 10283 10285 10288 10290 10292 10294 10296 10299 10301 10304 10306 10308 10310 10312 10313 10315 10316 10316 10318 10320 10321 10322 10323 10324 10325 10326 10328 10328 10329 10330 10331 10331 10332 10333 10333
10209 10208 10205 10203 10200 10198 10196 10195 10193 10193 10193 10193 10194 10195 10196 10197 10199 10201 10203 10205 10206 10208 10209 10210 10211 10213 10215 10220 10223 10226 10228 10232 10238 10242 10241 10238 10233 10232 10237 10245 10249 10249 10249 10254 10257 10258 10259 10261 10264 10268 10271 10275 10276 10278 10281 10284 10286 10288 10290 10293 10295 10297 10299 10302 10305 10306 10307 10308 10310 10311 10313 10314 10316 10317 10318 10320 10320 10321 10322 10323 10324 10325 10326 10327 10328 10328
10196 10195 10193 10190 10188 10186 10185 10182 10180 10178 10178 10178 10179 10180 10180 10181 10183 10185 10186 10189 10191 10193 10195 10196 10198 10199 10201 10204 10208 10212 10217 10221 10226 10229 10229 10225 10220 10220 10224 10231 10236 10238 10239 10243 10246 10248 10250 10252 10255 10258 10261 10265 10267 10270 10273 10276 10278 10280 10282 10285 10286 10288 10291 10294 10296 10298 10300 10301 10303 10305 10306 10308 10309 10310 10312 10313 10315 10315 10316 10317 10318 10320 10320 10321 10322 10323
10184 10182 10180 10178 10176 10174 10172 10170 10168 10166 10165 10165 10165 10165 10166 10167 10168 10170 10171 10173 10176 10178 10180 10182 10184 10186 10188 10190 10193 10198 10205 10210 10213 10216 10216 10212 10208 10208 10211 10218 10223 10226 10229 10232 10235 10238 10240 10243 10245 10248 10251 10254 10257 10261 10265 10267 10270 10272 10274 10276 10278 10280 10283 10286 10288 10290 10291 10293 10296 10298 10299 10301 10303 10304 10305 10307 10308 10310 10310 10311 10312 10313 10315 10316 10317 10318
10171 10169 10168 10165 10163 10161 10159 10157 10156 10154 10153 10152 10151 10152 10153 10153 10155 10156 10158 10160 10161 10164 10166 10169 10171 10173 10176 10178 10181 10185 10190 10195 10200 10203 10203 10199 10196 10196 10199 10204 10210 10215 10218 10221 10225 10227 10230 10233 10235 10238 10241 10244 10248 10251 10255 10258 10261 10264 10266 10269 10271 10273 10275 10278 10281 10283 10284 10286 10288 10290 10291 10294 10296 10298 10299 10301 10302 10303 10304 10305 10306 10308 10309 10310 10311 10313
10159 10157 10155 10153 10151 10149 10147 10145 10143 10142 10141 10140 10140 10140 10140 10141 10143 10144 10146 10147 10149 10151 10153 10156 10158 10161 10164 10166 10169 10172 10176 10181 10185 10188 10188 10186 10185 10185 10188 10191 10196 10202 10207 10211 10214 10216 10220 10223 10225 10228 10232 10235 10238 10241 10245 10250 10253 10256 10259 10261 10263 10266 10268 10271 10273 10275 10277 10279 10281 10283 10285 10287 10289 10291 10292 10294 10295 10296 10298 10299 10301 10302 10303 10305 10306 10307
10146 10145 10143 10141 10140 10138 10136 10134 10133 10131 10130 10129 10128 10128 10129 10130 10131 10133 10135 10136 10138 10139 10141 10143 10146 10149 10151 10154 10157 10160 10163 10168 10171 10173 10173 10172 10173 10175 10178 10181 10185 10190 10196 10200 10203 10206 10210 10213 10216 10219 10222 10225 10228 10231 10236 10241 10245 10248 10250 10252 10255 10258 10261 10263 10266 10268 10270 10271 10273 10275 10278 10280 10282 10284 10286 10288 10289 10290 10291 10293 10295 10296 10297 10299 10300 10301
10135 10133 10131 10130 10128 10126 10125 10123 10122 10121 10120 10119 10118 10118 10119 10120 10121 10123 10125 10126 10127 10128 10130 10131 10134 10137 10140 10142 10145 10148 10150 10155 10158 10158 10159 10160 10161 10165 10168 10170 10174 10180 10185 10188 10191 10195 10200 10203 10206 10208 10211 10215 10219 10223 10228 10232 10236 10239 10241 10243 10247 10251 10253 10256 10259 10261 10263 10265 10267 10269 10271 10273 10275 10277 10279 10281 10283 10284 10285 10286 10288 10290 10291 10293 10295 10296
10123 10122 10121 10119 10117 10116 10114 10113 10111 10111 10110 10109 10108 10108 10109 10110 10112 10113 10115 10116 10117 10118 10119 10120 10123 10125 10128 10131 10133 10136 10138 10143 10146 10148 10149 10151 10154 10156 10158 10161 10164 10168 10173 10177 10181 10185 10189 10192 10195 10198 10201 10206 10210 10215 10219 10223 10226 10229 10232 10236 10241 10244 10246 10248 10251 10255 10256 10258 10261 10263 10265 10267 10269 10271 10273 10274 10276 10278 10279 10280 10282 10284 10286 10288 10289 10291
10113 10111 10110 10108 10107 10105 10104 10103 10102 10101 10100 10100 10099 10100 10100 10101 10103 10104 10105 10106 10107 10108 10108 10110 10111 10114 10117 10120 10123 10125 10127 10130 10134 10138 10141 10144 10146 10147 10148 10150 10153 10157 10161 10166 10170 10174 10177 10181 10185 10188 10192 10196 10201 10205 10209 10213 10217 10220 10224 10228 10232 10235 10237 10241 10245 10248 10249 10251 10254 10256 10258 10260 10263 10265 10266 10268 10269 10271 10272 10274 10276 10278 10280 10282 10284 10285
10103 10101 10100 10098 10097 10096 10095 10093 10093 10091 10091 10091 10090 10091 10091 10092 10093 10095 10096 10097 10098 10098 10099 10100 10101 10104 10107 10110 10113 10115 10118 10120 10123 10127 10131 10134 10136 10137 10138 10140 10142 10146 10151 10155 10159 10163 10166 10171 10175 10178 10183 10187 10191 10195 10200 10204 10208 10211 10216 10220 10222 10225 10229 10234 10238 10240 10242 10245 10247 10250 10252 10255 10256 10258 10260 10261 10263 10264 10266 10268 10271 10273 10275 10276 10278 10280
10093 10091 10090 10089 10088 10086 10085 10085 10084 10083 10082 10082 10082 10082 10083 10084 10085 10086 10086 10088 10088 10089 10090 10091 10093 10095 10098 10100 10103 10106 10108 10111 10113 10117 10121 10124 10126 10127 10128 10130 10133 10136 10141 10145 10149 10152 10156 10161 10165 10169 10173 10178 10182 10186 10191 10195 10199 10203 10208 10211 10215 10218 10223 10228 10230 10232 10235 10238 10241 10243 10246 10248 10250 10251 10253 10255 10256 10258 10260 10263 10265 10267 10269 10271 10273 10274
10083 10082 10081 10080 10079 10078 10077 10076 10075 10075 10074 10074 10074 10074 10075 10075 10076 10077 10078 10079 10080 10080 10081 10083 10085 10087 10089 10091 10095 10097 10100 10102 10105 10108 10111 10114 10116 10117 10119 10121 10124 10128 10131 10135 10139 10142 10147 10152 10156 10160 10164 10169 10174 10178 10181 10185 10190 10195 10199 10203 10207 10212 10217 10219 10221 10225 10229 10231 10234 10236 10240 10242 10243 10245 10247 10248 10250 10252 10255 10257 10260 10261 10263 10265 10266 10268
10075 10073 10072 10071 10070 10070 10069 10068 10067 10066 10066 10066 10066 10066 10067 10067 10068 10069 10070 10070 10071 10072 10073 10075 10077 10079 10081 10083 10086 10089 10091 10093 10096 10099 10101 10105 10106 10108 10110 10113 10115 10119 10122 10126 10129 10133 10138 10144 10148 10151 10156 10161 10165 10170 10173 10176 10181 10186 10190 10195 10199 10203 10206 10209 10213 10218 10223 10225 10227 10230 10233 10235 10237 10239 10241 10243 10245 10246 10249 10251 10253 10256 10258 10260 10261 10263
10066 10065 10063 10062 10061 10061 10060 10060 10060 10059 10059 10059 10059 10059 10059 10060 10060 10061 10062 10063 10063 10065 10066 10068 10070 10073 10073 10076 10078 10081 10083 10085 10088 10090 10093 10095 10098 10100 10102 10105 10107 10110 10113 10117 10121 10125 10130 10135 10139 10143 10148 10153 10157 10160 10164 10168 10173 10177 10181 10186 10191 10196 10200 10203 10207 10211 10215 10216 10220 10224 10226 10229 10231 10233 10235 10236 10238 10240 10243 10245 10248 10250 10252 10254 10256 10257
10058 10056 10055 10054 10053 10053 10053 10053 10052 10052 10052 10051 10051 10051 10051 10052 10053 10053 10055 10055 10056 10058 10059 10061 10063 10065 10066 10068 10071 10073 10075 10077 10080 10082 10085 10087 10090 10092 10095 10097 10099 10102 10106 10109 10113 10118 10123 10127 10131 10135 10140 10145 10148 10151 10155 10160 10165 10170 10174 10178 10184 10189 10193 10196 10200 10203 10206 10210 10213 10216 10220 10223 10225 10227 10228 10230 10232 10235 10237 10240 10242 10244 10246 10248 10250 10252
10050 10049 10048 10046 10046 10045 10045 10045 10045 10045 10045 10045 10045 10045 10045 10045 10046 10046 10048 10048 10050 10051 10051 10053 10056 10058 10059 10061 10063 10066 10067 10070 10072 10075 10077 10080 10082 10085 10088 10090 10092 10095 10099 10102 10106 10111 10116 10120 10123 10127 10131 10136 10140 10143 10148 10153 10157 10161 10166 10171 10176 10181 10185 10188 10192 10196 10200 10203 10207 10210 10213 10216 10218 10220 10221 10224 10226 10229 10231 10234 10236 10239 10241 10243 10245 10246
10043 10042 10041 10040 10039 10038 10038 10038 10038 10038 10038 10038 10038 10038 10038 10038 10040 10040 10041 10042 10043 10044 10045 10047 10048 10050 10052 10054 10056 10058 10060 10062 10065 10068 10071 10073 10075 10078 10081 10083 10086 10089 10093 10096 10101 10105 10110 10113 10116 10120 10124 10128 10131 10136 10141 10145 10150 10154 10158 10163 10169 10174 10177 10180 10185 10189 10193 10198 10200 10203 10206 10209 10211 10213 10215 10218 10221 10223 10226 10228 10231 10233 10235 10237 10240 10241
10036 10035 10034 10033 10033 10032 10031 10031 10032 10032 10031 10031 10031 10031 10031 10032 10033 10034 10035 10035 10036 10038 10039 10040 10042 10043 10045 10047 10049 10051 10053 10056 10059 10062 10065 10066 10068 10071 10074 10076 10079 10083 10086 10091 10095 10099 10103 10106 10110 10113 10117 10121 10125 10130 10134 10138 10143 10148 10152 10157 10162 10166 10170 10173 10178 10182 10186 10190 10194 10197 10200 10202 10205 10207 10210 10213 10216 10218 10220 10223 10225 10228 10230 10232 10234 10236
10030 10028 10028 10027 10026 10026 10025 10025 10025 10025 10025 10025 10025 10025 10026 10026 10027 10028 10028 10029 10030 10031 10033 10035 10036 10037 10039 10040 10043 10045 10048 10051 10054 10056 10058 10060 10061 10064 10067 10070 10073 10076 10081 10085 10089 10093 10096 10100 10103 10106 10110 10115 10119 10123 10128 10132 10136 10141 10146 10151 10155 10159 10163 10167 10171 10175 10180 10184 10187 10190 10193 10196 10198 10201 10205 10208 10210 10212 10215 10217 10220 10222 10224 10226 10229 10231
10023 10022 10021 10021 10021 10020 10020 10020 10020 10020 10019 10019 10019 10020 10020 10020 10021 10021 10023 10024 10025 10026 10027 10028 10030 10031 10033 10035 10037 10040 10042 10045 10048 10050 10051 10053 10055 10058 10061 10063 10067 10071 10075 10079 10083 10086 10090 10093 10096 10100 10104 10108 10112 10116 10121 10125 10130 10135 10140 10143 10148 10152 10156 10160 10164 10168 10174 10178 10181 10183 10186 10190 10193 10196 10199 10201 10204 10206 10209 10211 10214 10216 10218 10221 10223 10225